Starlink 31960

operational
NORAD ID: 59931 Int'l Des: 2024-106 Owner: SPXS Country: US Constellation: starlink
LEOCIRCULAR

About Starlink 31960

Description loading...

Live Position

Loading 3D Globe...

Upcoming Passes

Altitude History

Altitude vs Time

uPlot chart will show altitude changes over time

Two-Line Element Set

1 59931U 24106K 26033.36839790 .00000007 00000-0 97790-5 0 9993
2 59931 43.0024 171.7632 0001218 247.0062 113.0662 15.27579069 95129
Epoch: Feb 2, 2026 • Age: 29 hours

Current Status

Altitude 485.4 km
Velocity 7.63 km/s
Sub-Earth Point 36.71°N, 45.53°W
Launch Date Jun 1, 2024
Age 1.6 years
Type internet

Technical Details

Classification Payload
Mass 730.00 kg
Dry Mass 700.00 kg
Total Mass 730.00 kg
Length 0.30 m
Diameter 4.10 m
Span 29.00 m
Shape Box + pan
Manufacturer SPXS
Bus Type Starlink V2M
Phase Status In Orbit
Owner/State SPXS/US

Large Constellations

Loading constellations...